Time,TemperatureF,DewpointF,PressureIn,WindDirection,WindDirectionDegrees,WindSpeedMPH,WindSpeedGustMPH,Humidity,HourlyPrecipIn,Conditions,Clouds,dailyrainin,SolarRadiationWatts/m^2,SoftwareType,DateUTC
2013-08-22 00:00:00,70.6,64.5,30.08,SSW,198,0.0,3.4,81,0.00,,,0.00,0.00,VWS V14.01,2013-08-22 04:00:00,
2013-08-22 00:02:00,70.6,64.5,30.08,SSW,198,0.0,3.4,81,0.00,,,0.00,0.00,VWS V14.01,2013-08-22 04:02:00,
2013-08-22 00:10:00,70.2,64.4,30.08,SSW,198,0.0,0.0,82,0.00,,,0.00,0.00,VWS V14.01,2013-08-22 04:10:00,
2013-08-22 00:20:00,69.7,64.2,30.08,SSW,198,0.0,0.0,83,0.00,,,0.00,0.00,VWS V14.01,2013-08-22 04:20:00,
2013-08-22 00:30:00,69.4,63.9,30.09,SSW,198,0.0,0.0,83,0.00,,,0.00,0.00,VWS V14.01,2013-08-22 04:30:00,
2013-08-22 00:40:00,69.0,63.5,30.09,SSW,198,0.0,0.0,83,0.00,,,0.00,0.00,VWS V14.01,2013-08-22 04:40:00,
2013-08-22 00:50:00,68.6,63.5,30.09,SSW,198,0.0,0.0,84,0.00,,,0.00,0.00,VWS V14.01,2013-08-22 04:50:00,
2013-08-22 01:00:00,68.3,63.5,30.09,SSW,198,0.0,0.0,85,0.00,,,0.00,0.00,VWS V14.01,2013-08-22 05:00:00,
2013-08-22 01:10:00,68.0,63.2,30.08,SSW,198,0.0,0.0,85,0.00,,,0.00,0.00,VWS V14.01,2013-08-22 05:10:00,
2013-08-22 01:20:00,68.0,63.5,30.08,SSW,198,0.0,0.0,86,0.00,,,0.00,0.00,VWS V14.01,2013-08-22 05:20:00,
2013-08-22 01:30:00,67.9,63.4,30.08,SSW,198,0.0,0.0,86,0.00,,,0.00,0.00,VWS V14.01,2013-08-22 05:30:00,
2013-08-22 01:40:00,67.9,63.7,30.08,SSW,198,0.0,0.0,86,0.00,,,0.00,0.00,VWS V14.01,2013-08-22 05:40:00,
2013-08-22 01:50:00,68.0,63.8,30.08,SSW,198,0.0,0.0,86,0.00,,,0.00,0.00,VWS V14.01,2013-08-22 05:50:00,
2013-08-22 02:00:00,68.0,63.8,30.07,SSW,198,0.0,0.0,86,0.00,,,0.00,0.00,VWS V14.01,2013-08-22 06:00:00,
2013-08-22 02:10:00,67.9,63.7,30.08,SSW,198,0.0,0.0,86,0.00,,,0.00,0.00,VWS V14.01,2013-08-22 06:10:00,
2013-08-22 02:20:00,67.7,63.5,30.06,SSW,198,0.0,0.0,86,0.00,,,0.00,0.00,VWS V14.01,2013-08-22 06:20:00,
2013-08-22 02:30:00,67.5,63.3,30.07,SSW,198,0.0,0.0,86,0.00,,,0.00,0.00,VWS V14.01,2013-08-22 06:30:00,
2013-08-22 02:40:00,67.2,63.0,30.07,SSW,198,0.0,0.0,86,0.00,,,0.00,0.00,VWS V14.01,2013-08-22 06:40:00,
2013-08-22 02:50:00,66.9,62.7,30.06,SSW,198,0.0,0.0,86,0.00,,,0.00,0.00,VWS V14.01,2013-08-22 06:50:00,
2013-08-22 03:00:00,66.7,62.5,30.06,SSW,198,0.0,0.0,86,0.00,,,0.00,0.00,VWS V14.01,2013-08-22 07:00:00,
2013-08-22 03:10:00,66.6,62.8,30.05,SSW,198,0.0,0.0,87,0.00,,,0.00,0.00,VWS V14.01,2013-08-22 07:10:00,
2013-08-22 03:20:00,66.7,62.8,30.06,SSW,198,0.0,1.7,87,0.00,,,0.00,0.00,VWS V14.01,2013-08-22 07:20:00,
2013-08-22 03:30:00,66.5,62.7,30.06,SSW,198,0.0,3.4,87,0.00,,,0.00,0.00,VWS V14.01,2013-08-22 07:30:00,
2013-08-22 03:40:00,66.3,62.5,30.06,SSW,198,0.0,0.0,87,0.00,,,0.00,0.00,VWS V14.01,2013-08-22 07:40:00,
2013-08-22 03:50:00,66.1,62.3,30.06,SSW,198,0.0,1.7,87,0.00,,,0.00,0.00,VWS V14.01,2013-08-22 07:50:00,
2013-08-22 04:00:00,66.1,62.3,30.06,SSW,198,0.0,0.0,87,0.00,,,0.00,0.00,VWS V14.01,2013-08-22 08:00:00,
2013-08-22 04:10:00,66.0,62.2,30.06,SSW,192,0.0,5.1,87,0.00,,,0.00,0.00,VWS V14.01,2013-08-22 08:10:00,
2013-08-22 04:20:00,65.8,62.0,30.06,South,179,0.0,5.1,87,0.00,,,0.00,0.00,VWS V14.01,2013-08-22 08:20:00,
2013-08-22 04:30:00,65.7,61.9,30.06,South,179,0.0,1.7,87,0.00,,,0.00,0.00,VWS V14.01,2013-08-22 08:30:00,
2013-08-22 04:40:00,65.6,62.1,30.06,South,179,0.0,3.4,88,0.00,,,0.00,0.00,VWS V14.01,2013-08-22 08:40:00,
2013-08-22 04:50:00,65.5,62.0,30.06,South,179,0.0,5.1,88,0.00,,,0.00,0.00,VWS V14.01,2013-08-22 08:50:00,
2013-08-22 05:00:00,65.4,61.9,30.06,South,179,0.0,1.7,88,0.00,,,0.00,0.00,VWS V14.01,2013-08-22 09:00:00,
2013-08-22 05:10:00,65.3,61.5,30.06,South,179,0.0,1.7,87,0.00,,,0.00,0.00,VWS V14.01,2013-08-22 09:10:00,
2013-08-22 05:20:00,65.2,61.7,30.05,South,179,0.0,0.0,88,0.00,,,0.00,0.00,VWS V14.01,2013-08-22 09:20:00,
2013-08-22 05:30:00,65.1,61.6,30.05,South,179,5.7,5.7,88,0.00,,,0.00,0.00,VWS V14.01,2013-08-22 09:30:00,
2013-08-22 05:40:00,65.1,61.3,30.05,South,178,0.0,5.1,87,0.00,,,0.00,0.00,VWS V14.01,2013-08-22 09:40:00,
2013-08-22 05:50:00,65.0,61.2,30.05,South,178,0.0,3.4,87,0.00,,,0.00,0.00,VWS V14.01,2013-08-22 09:50:00,
2013-08-22 06:00:00,64.9,61.4,30.05,South,178,0.0,0.0,88,0.00,,,0.00,0.00,VWS V14.01,2013-08-22 10:00:00,
2013-08-22 06:10:00,64.7,60.9,30.05,South,178,0.0,1.7,87,0.00,,,0.00,0.00,VWS V14.01,2013-08-22 10:10:00,
2013-08-22 06:20:00,64.6,60.8,30.05,South,178,0.0,0.0,87,0.00,,,0.00,0.00,VWS V14.01,2013-08-22 10:20:00,
2013-08-22 06:30:00,64.4,60.6,30.05,South,178,0.0,0.0,87,0.00,,,0.00,0.00,VWS V14.01,2013-08-22 10:30:00,
2013-08-22 06:40:00,64.3,60.8,30.05,South,178,0.0,0.0,88,0.00,,,0.00,0.00,VWS V14.01,2013-08-22 10:40:00,
2013-08-22 06:50:00,63.9,60.1,30.05,South,178,0.0,0.0,87,0.00,,,0.00,5.00,VWS V14.01,2013-08-22 10:50:00,
2013-08-22 07:00:00,63.6,60.1,30.05,South,178,0.0,0.0,88,0.00,,,0.00,11.00,VWS V14.01,2013-08-22 11:00:00,
2013-08-22 07:10:00,63.8,60.3,30.05,South,178,0.0,0.0,88,0.00,,,0.00,14.00,VWS V14.01,2013-08-22 11:10:00,
2013-08-22 07:20:00,64.0,60.5,30.05,South,178,0.0,1.7,88,0.00,,,0.00,18.00,VWS V14.01,2013-08-22 11:20:00,
2013-08-22 07:30:00,64.2,60.7,30.05,South,178,0.0,1.7,88,0.00,,,0.00,25.00,VWS V14.01,2013-08-22 11:30:00,
2013-08-22 07:40:00,64.4,60.9,30.05,South,178,0.0,3.4,88,0.00,,,0.00,35.00,VWS V14.01,2013-08-22 11:40:00,
2013-08-22 07:50:00,64.8,61.3,30.05,South,178,0.0,3.4,88,0.00,,,0.00,40.00,VWS V14.01,2013-08-22 11:50:00,
2013-08-22 08:00:00,65.2,61.7,30.05,SSE,148,3.8,5.1,88,0.00,,,0.00,51.00,VWS V14.01,2013-08-22 12:00:00,
2013-08-22 08:10:00,65.6,62.1,30.05,SSE,148,0.0,3.4,88,0.00,,,0.00,56.00,VWS V14.01,2013-08-22 12:10:00,
2013-08-22 08:20:00,66.1,62.3,30.06,SSE,148,0.0,1.7,87,0.00,,,0.00,65.00,VWS V14.01,2013-08-22 12:20:00,
2013-08-22 08:30:00,66.6,62.8,30.07,SE,137,0.0,5.1,87,0.00,,,0.00,72.00,VWS V14.01,2013-08-22 12:30:00,
2013-08-22 08:40:00,67.2,63.0,30.07,SSE,167,0.0,1.7,86,0.00,,,0.00,206.00,VWS V14.01,2013-08-22 12:40:00,
2013-08-22 08:50:00,68.0,63.8,30.08,SSW,213,0.0,3.4,86,0.00,,,0.00,193.00,VWS V14.01,2013-08-22 12:50:00,
2013-08-22 09:00:00,68.8,64.3,30.07,WSW,244,0.0,3.4,86,0.00,,,0.00,267.00,VWS V14.01,2013-08-22 13:00:00,
2013-08-22 09:10:00,69.6,64.4,30.07,SSW,203,0.0,3.4,84,0.00,,,0.00,338.00,VWS V14.01,2013-08-22 13:10:00,
2013-08-22 09:20:00,70.6,65.1,30.07,SW,221,0.0,1.7,83,0.00,,,0.00,380.00,VWS V14.01,2013-08-22 13:20:00,
2013-08-22 09:30:00,71.6,65.8,30.06,SSE,165,0.0,5.1,82,0.00,,,0.00,413.00,VWS V14.01,2013-08-22 13:30:00,
2013-08-22 09:40:00,73.0,65.8,30.05,SE,136,0.0,6.8,78,0.00,,,0.00,508.00,VWS V14.01,2013-08-22 13:40:00,
2013-08-22 09:50:00,74.0,66.4,30.05,SSE,161,0.0,5.1,77,0.00,,,0.00,547.00,VWS V14.01,2013-08-22 13:50:00,
2013-08-22 10:00:00,74.6,67.0,30.05,SSW,211,0.0,8.5,77,0.00,,,0.00,550.00,VWS V14.01,2013-08-22 14:00:00,
2013-08-22 10:10:00,75.0,66.3,30.05,South,177,0.0,6.8,74,0.00,,,0.00,332.00,VWS V14.01,2013-08-22 14:10:00,
2013-08-22 10:20:00,75.2,66.9,30.05,West,267,0.0,5.1,75,0.00,,,0.00,327.00,VWS V14.01,2013-08-22 14:20:00,
2013-08-22 10:30:00,74.7,66.7,30.05,West,271,0.0,5.1,76,0.00,,,0.00,174.00,VWS V14.01,2013-08-22 14:30:00,
2013-08-22 10:40:00,74.3,66.7,30.06,West,263,0.0,6.8,77,0.00,,,0.00,169.00,VWS V14.01,2013-08-22 14:40:00,
2013-08-22 10:50:00,74.4,67.1,30.06,West,267,0.0,3.4,78,0.00,,,0.00,190.00,VWS V14.01,2013-08-22 14:50:00,
2013-08-22 11:00:00,74.7,67.1,30.07,West,263,0.0,5.1,77,0.00,,,0.00,174.00,VWS V14.01,2013-08-22 15:00:00,
2013-08-22 11:10:00,74.6,67.0,30.07,West,261,0.0,3.4,77,0.00,,,0.00,35.00,VWS V14.01,2013-08-22 15:10:00,
2013-08-22 11:20:00,73.9,67.3,30.07,West,261,0.0,3.4,80,0.07,,,0.07,30.00,VWS V14.01,2013-08-22 15:20:00,
2013-08-22 11:30:00,73.5,67.6,30.08,West,261,0.0,0.0,82,0.07,,,0.07,44.00,VWS V14.01,2013-08-22 15:30:00,
2013-08-22 11:40:00,73.1,67.6,30.07,West,261,0.0,0.0,83,0.07,,,0.07,118.00,VWS V14.01,2013-08-22 15:40:00,
2013-08-22 11:50:00,73.1,67.9,30.06,West,261,0.0,0.0,84,0.07,,,0.07,130.00,VWS V14.01,2013-08-22 15:50:00,
2013-08-22 12:00:00,73.2,68.3,30.06,West,261,0.0,0.0,85,0.07,,,0.07,104.00,VWS V14.01,2013-08-22 16:00:00,
2013-08-22 12:10:00,73.2,68.3,30.06,West,259,0.0,0.0,85,0.07,,,0.07,134.00,VWS V14.01,2013-08-22 16:10:00,
2013-08-22 12:20:00,73.0,68.1,30.06,West,259,0.0,3.4,85,0.07,,,0.07,190.00,VWS V14.01,2013-08-22 16:20:00,
2013-08-22 12:30:00,73.3,68.7,30.06,West,259,0.0,1.7,86,0.00,,,0.07,248.00,VWS V14.01,2013-08-22 16:30:00,
2013-08-22 12:40:00,73.8,69.2,30.06,West,259,0.0,3.4,86,0.00,,,0.07,260.00,VWS V14.01,2013-08-22 16:40:00,
2013-08-22 12:50:00,74.2,69.3,30.05,West,259,0.0,5.1,85,0.00,,,0.07,325.00,VWS V14.01,2013-08-22 16:50:00,
2013-08-22 13:00:00,74.8,69.9,30.05,SSE,166,0.0,1.7,85,0.00,,,0.07,334.00,VWS V14.01,2013-08-22 17:00:00,
2013-08-22 13:10:00,74.6,68.7,30.05,SSW,198,0.0,5.1,82,0.00,,,0.07,341.00,VWS V14.01,2013-08-22 17:10:00,
2013-08-22 13:20:00,75.1,68.5,30.05,South,177,0.0,3.4,80,0.00,,,0.07,345.00,VWS V14.01,2013-08-22 17:20:00,
2013-08-22 13:30:00,75.2,67.6,30.04,SSE,163,0.0,3.4,77,0.00,,,0.07,323.00,VWS V14.01,2013-08-22 17:30:00,
2013-08-22 13:40:00,75.7,68.8,30.04,SSE,166,0.0,3.4,79,0.00,,,0.07,434.00,VWS V14.01,2013-08-22 17:40:00,
2013-08-22 13:50:00,76.4,69.1,30.03,SSE,168,0.0,3.4,78,0.00,,,0.07,454.00,VWS V14.01,2013-08-22 17:50:00,
2013-08-22 14:00:00,77.0,68.2,30.03,SSE,161,0.0,5.1,74,0.00,,,0.07,401.00,VWS V14.01,2013-08-22 18:00:00,
2013-08-22 14:10:00,77.1,68.3,30.02,SSE,149,0.0,6.8,74,0.00,,,0.07,422.00,VWS V14.01,2013-08-22 18:10:00,
2013-08-22 14:20:00,77.9,68.4,30.02,SW,225,0.0,3.4,73,0.00,,,0.07,752.00,VWS V14.01,2013-08-22 18:20:00,
2013-08-22 14:30:00,78.4,68.5,30.02,WNW,286,0.0,8.5,72,0.00,,,0.07,860.00,VWS V14.01,2013-08-22 18:30:00,
2013-08-22 14:40:00,79.3,69.0,30.02,West,265,0.0,8.5,71,0.00,,,0.07,684.00,VWS V14.01,2013-08-22 18:40:00,
2013-08-22 14:50:00,80.5,71.2,30.02,SW,233,0.0,6.8,73,0.00,,,0.07,870.00,VWS V14.01,2013-08-22 18:50:00,
2013-08-22 15:00:00,80.6,69.8,30.01,WNW,284,1.9,13.6,70,0.00,,,0.07,446.00,VWS V14.01,2013-08-22 19:00:00,
2013-08-22 15:10:00,80.1,70.1,30.01,WSW,252,0.0,8.5,72,0.00,,,0.07,686.00,VWS V14.01,2013-08-22 19:10:00,
2013-08-22 15:20:00,81.0,70.2,30.00,SW,236,0.0,6.8,70,0.00,,,0.07,840.00,VWS V14.01,2013-08-22 19:20:00,
2013-08-22 15:30:00,81.1,70.3,29.99,West,262,5.7,6.8,70,0.00,,,0.07,522.00,VWS V14.01,2013-08-22 19:30:00,
2013-08-22 15:40:00,80.9,70.1,29.99,West,264,3.8,15.3,70,0.00,,,0.07,330.00,VWS V14.01,2013-08-22 19:40:00,
2013-08-22 15:50:00,81.8,71.0,29.99,West,260,0.0,11.9,70,0.00,,,0.07,540.00,VWS V14.01,2013-08-22 19:50:00,
2013-08-22 16:00:00,82.1,70.4,29.99,WSW,253,7.6,13.6,68,0.00,,,0.07,197.00,VWS V14.01,2013-08-22 20:00:00,
2013-08-22 16:10:00,81.4,71.0,29.99,WSW,250,0.0,11.9,71,0.00,,,0.07,262.00,VWS V14.01,2013-08-22 20:10:00,
2013-08-22 16:20:00,80.7,69.5,29.98,WSW,250,0.0,8.5,69,0.00,,,0.07,183.00,VWS V14.01,2013-08-22 20:20:00,
2013-08-22 16:30:00,80.6,69.8,29.98,West,259,1.9,10.2,70,0.00,,,0.07,181.00,VWS V14.01,2013-08-22 20:30:00,
2013-08-22 16:40:00,80.3,69.9,29.98,WSW,258,0.0,11.9,71,0.01,,,0.08,158.00,VWS V14.01,2013-08-22 20:40:00,
2013-08-22 16:50:00,80.2,70.6,29.97,WSW,256,0.0,3.4,73,0.01,,,0.08,109.00,VWS V14.01,2013-08-22 20:50:00,
2013-08-22 17:00:00,80.0,70.0,29.97,WSW,257,0.0,10.2,72,0.01,,,0.08,179.00,VWS V14.01,2013-08-22 21:00:00,
2013-08-22 17:10:00,80.2,70.6,29.97,West,277,0.0,5.1,73,0.01,,,0.08,294.00,VWS V14.01,2013-08-22 21:10:00,
2013-08-22 17:20:00,80.7,71.1,29.97,WSW,249,0.0,3.4,73,0.01,,,0.08,204.00,VWS V14.01,2013-08-22 21:20:00,
2013-08-22 17:30:00,80.5,70.9,29.97,WSW,255,0.0,3.4,73,0.01,,,0.08,174.00,VWS V14.01,2013-08-22 21:30:00,
2013-08-22 17:40:00,80.3,70.7,29.97,West,265,3.8,3.8,73,0.01,,,0.08,163.00,VWS V14.01,2013-08-22 21:40:00,
2013-08-22 17:50:00,80.0,69.2,29.97,WSW,257,0.0,5.1,70,0.00,,,0.08,146.00,VWS V14.01,2013-08-22 21:50:00,
2013-08-22 18:00:00,79.8,69.4,29.97,East,85,0.0,3.4,71,0.00,,,0.08,118.00,VWS V14.01,2013-08-22 22:00:00,
2013-08-22 18:10:00,79.6,69.2,29.97,West,265,0.0,5.1,71,0.00,,,0.08,104.00,VWS V14.01,2013-08-22 22:10:00,
2013-08-22 18:20:00,79.3,69.3,29.97,WSW,251,0.0,6.8,72,0.00,,,0.08,93.00,VWS V14.01,2013-08-22 22:20:00,
2013-08-22 18:30:00,79.1,69.2,29.98,WSW,257,0.0,8.5,72,0.00,,,0.08,93.00,VWS V14.01,2013-08-22 22:30:00,
2013-08-22 18:40:00,78.9,69.3,29.98,WSW,249,0.0,3.4,73,0.00,,,0.08,76.00,VWS V14.01,2013-08-22 22:40:00,
2013-08-22 18:50:00,78.8,69.2,29.98,West,260,0.0,6.8,73,0.00,,,0.08,65.00,VWS V14.01,2013-08-22 22:50:00,
2013-08-22 19:00:00,78.5,68.9,29.97,West,261,0.0,5.1,73,0.00,,,0.08,49.00,VWS V14.01,2013-08-22 23:00:00,
2013-08-22 19:10:00,78.2,69.0,29.97,WSW,254,0.0,1.7,73,0.00,,,0.08,33.00,VWS V14.01,2013-08-22 23:10:00,
2013-08-22 19:20:00,77.9,68.7,29.97,WSW,249,1.9,3.4,73,0.00,,,0.08,26.00,VWS V14.01,2013-08-22 23:20:00,
2013-08-22 19:30:00,77.7,68.9,29.97,West,281,0.0,5.1,74,0.00,,,0.08,18.00,VWS V14.01,2013-08-22 23:30:00,
2013-08-22 19:40:00,77.4,69.0,29.97,West,275,0.0,3.4,75,0.00,,,0.08,9.00,VWS V14.01,2013-08-22 23:40:00,
2013-08-22 19:50:00,77.1,68.7,29.97,WSW,256,3.8,3.8,75,0.00,,,0.08,5.00,VWS V14.01,2013-08-22 23:50:00,
2013-08-22 20:00:00,76.9,68.9,29.97,WSW,246,0.0,6.8,76,0.00,,,0.08,0.00,VWS V14.01,2013-08-23 00:00:00,
2013-08-22 20:10:00,76.7,68.7,29.97,WSW,246,0.0,3.4,76,0.00,,,0.08,0.00,VWS V14.01,2013-08-23 00:10:00,
2013-08-22 20:20:00,76.5,68.8,29.98,WSW,256,0.0,3.4,77,0.00,,,0.08,0.00,VWS V14.01,2013-08-23 00:20:00,
2013-08-22 20:30:00,76.0,68.3,29.98,West,261,0.0,10.2,77,0.00,,,0.08,0.00,VWS V14.01,2013-08-23 00:30:00,
2013-08-22 20:40:00,74.9,67.3,29.99,West,269,0.0,6.8,77,0.00,,,0.08,0.00,VWS V14.01,2013-08-23 00:40:00,
2013-08-22 20:50:00,74.6,67.3,29.99,West,269,0.0,1.7,78,0.00,,,0.08,0.00,VWS V14.01,2013-08-23 00:50:00,
2013-08-22 21:00:00,74.3,67.4,29.99,West,269,0.0,0.0,79,0.00,,,0.08,0.00,VWS V14.01,2013-08-23 01:00:00,
2013-08-22 21:10:00,74.1,67.5,29.99,West,269,0.0,0.0,80,0.00,,,0.08,0.00,VWS V14.01,2013-08-23 01:10:00,
2013-08-22 21:20:00,74.0,67.4,29.99,West,269,0.0,0.0,80,0.00,,,0.08,0.00,VWS V14.01,2013-08-23 01:20:00,
2013-08-22 21:30:00,74.1,67.2,29.99,North,360,0.0,3.4,79,0.00,,,0.08,0.00,VWS V14.01,2013-08-23 01:30:00,
2013-08-22 21:40:00,74.0,66.8,30.00,North,5,0.0,1.7,78,0.00,,,0.08,0.00,VWS V14.01,2013-08-23 01:40:00,
2013-08-22 21:50:00,73.7,66.5,30.00,North,360,0.0,0.0,78,0.00,,,0.08,0.00,VWS V14.01,2013-08-23 01:50:00,
2013-08-22 22:00:00,73.3,66.4,30.01,North,5,0.0,1.7,79,0.00,,,0.08,0.00,VWS V14.01,2013-08-23 02:00:00,
2013-08-22 22:10:00,73.1,66.2,30.00,North,5,0.0,0.0,79,0.00,,,0.08,0.00,VWS V14.01,2013-08-23 02:10:00,
2013-08-22 22:20:00,72.9,66.0,30.00,North,360,0.0,0.0,79,0.00,,,0.08,0.00,VWS V14.01,2013-08-23 02:20:00,
2013-08-22 22:30:00,73.0,66.1,30.00,North,360,0.0,3.4,79,0.00,,,0.08,0.00,VWS V14.01,2013-08-23 02:30:00,
2013-08-22 22:40:00,73.1,66.2,30.00,North,360,0.0,1.7,79,0.00,,,0.08,0.00,VWS V14.01,2013-08-23 02:40:00,
2013-08-22 22:50:00,73.0,66.1,30.00,North,360,0.0,0.0,79,0.00,,,0.08,0.00,VWS V14.01,2013-08-23 02:50:00,
2013-08-22 23:00:00,72.8,65.9,30.00,North,360,0.0,0.0,79,0.00,,,0.08,0.00,VWS V14.01,2013-08-23 03:00:00,
2013-08-22 23:10:00,72.4,65.9,30.00,North,360,0.0,0.0,80,0.00,,,0.08,0.00,VWS V14.01,2013-08-23 03:10:00,
2013-08-22 23:20:00,72.0,65.8,30.00,North,360,0.0,0.0,81,0.00,,,0.08,0.00,VWS V14.01,2013-08-23 03:20:00,
2013-08-22 23:30:00,71.8,65.6,30.00,North,360,0.0,0.0,81,0.00,,,0.08,0.00,VWS V14.01,2013-08-23 03:30:00,
2013-08-22 23:40:00,71.6,65.4,30.00,North,360,0.0,0.0,81,0.00,,,0.08,0.00,VWS V14.01,2013-08-23 03:40:00,
2013-08-22 23:50:00,71.4,65.6,30.00,North,360,0.0,0.0,82,0.00,,,0.08,0.00,VWS V14.01,2013-08-23 03:50:00,